Location: Lugrin
(46.4033°N, 6.6674°E)
Time: 11:20:06
(UTC+00:00)

USA 238 - Pass Details

Date: 18 September 2020
Orbit: 1006 x 1206 km, 63.4° (Epoch: 15 October)

Event Time Altitude Azimuth Distance (km) Brightness Sun altitude
Rises 19:32:25 0° 320° (NW) 3,940 7.8 -19.9°
Reaches altitude 10° 19:35:03 10° 321° (NW) 3,007 7.0 -20.3°
Maximum altitude 19:42:18 84° 51° (NE) 1,174 3.8 -21.4°
Enters shadow 19:45:44 36° 137° (SE) 1,781 4.3 -21.9°
